K5TWC Weather Reports


Display with metric or nautical units.
time (UTC)temp
F
wind
direction
speed
MPH
gust
MPH
rain 1hr
in
rain 24hr
in
rain mn
in
humidity
%
barometer
mb
20210619054627 78 143 0.0 0.0 0.00 0.00 0.00 74 1010.9
20210619053142 79 143 0.0 0.0 0.00 0.00 0.00 72 1010.9
20210619051628 79 143 0.0 0.0 0.00 0.00 0.00 70 1011.0
20210619050236 80 144 0.0 4.0 0.00 0.00 0.00 69 1011.0
20210619044608 80 144 0.0 3.0 0.00 0.00 0.00 69 1010.9
20210619043113 81 144 0.0 4.0 0.00 0.00 0.00 67 1010.9
20210619041649 81 132 1.0 5.0 0.00 0.00 0.00 66 1010.9
20210619040137 81 136 1.0 5.0 0.00 0.00 0.00 66 1010.9
20210619034632 82 128 1.0 3.0 0.00 0.00 0.00 67 1010.9
20210619033106 82 131 0.0 5.0 0.00 0.00 0.00 67 1010.9
20210619031627 83 122 1.0 4.0 0.00 0.00 0.00 67 1010.8
20210619030119 83 122 0.0 7.0 0.00 0.00 0.00 65 1010.7
20210619024635 83 118 1.0 5.0 0.00 0.00 0.00 66 1010.4
20210619023058 83 122 1.0 4.0 0.00 0.00 0.00 66 1010.3
20210619021612 84 103 0.0 3.0 0.00 0.00 0.00 65 1010.3
20210619020106 85 128 2.0 5.0 0.00 0.00 0.00 63 1010.3
20210619014617 85 130 3.0 8.0 0.00 0.00 0.00 62 1010.1
20210619013155 86 130 1.0 5.0 0.00 0.00 0.00 62 1009.9
20210619011544 87 115 0.0 4.0 0.00 0.00 0.00 60 1009.8
20210619010109 87 121 2.0 7.0 0.00 0.00 0.00 58 1009.7
20210619004730 88 117 1.0 5.0 0.00 0.00 0.00 56 1009.7
20210619003101 89 122 1.0 6.0 0.00 0.00 0.00 55 1009.5
20210619001641 89 139 3.0 9.0 0.00 0.00 0.00 53 1009.6
20210619000130 90 69 2.0 7.0 0.00 0.00 0.00 52 1009.7
20210618234635 90 98 4.0 10.0 0.00 0.00 0.00 50 1009.7
20210618233036 91 101 2.0 11.0 0.00 0.00 0.00 51 1009.8
20210618231555 91 96 3.0 12.0 0.00 0.00 0.00 51 1009.7
20210618230043 91 72 3.0 10.0 0.00 0.00 0.00 52 1009.7
20210618224533 91 78 4.0 10.0 0.00 0.00 0.00 54 1009.7
20210618223041 92 85 6.0 11.0 0.00 0.00 0.00 52 1009.7
20210618221605 92 122 4.0 11.0 0.00 0.00 0.00 53 1009.7
20210618220052 93 123 6.0 14.0 0.00 0.00 0.00 51 1009.7
20210618214621 93 115 4.0 11.0 0.00 0.00 0.00 54 1009.7
20210618213141 94 112 4.0 9.0 0.00 0.00 0.00 51 1009.8
20210618211548 93 130 5.0 10.0 0.00 0.00 0.00 53 1009.9
20210618210030 93 111 4.0 8.0 0.00 0.00 0.00 52 1010.2
20210618204543 94 98 5.0 11.0 0.00 0.00 0.00 52 1010.2
20210618203049 94 110 4.0 9.0 0.00 0.00 0.00 50 1010.2
20210618201614 96 121 2.0 5.0 0.00 0.00 0.00 49 1010.3
20210618200044 95 126 0.0 9.0 0.00 0.00 0.00 52 1010.7
20210618194550 95 191 0.0 6.0 0.00 0.00 0.00 53 1010.7
20210618193023 95 163 1.0 9.0 0.00 0.00 0.00 51 1010.8
20210618191614 95 175 0.0 6.0 0.00 0.00 0.00 52 1011.1
20210618190022 95 94 4.0 10.0 0.00 0.00 0.00 51 1011.2
20210618184607 96 172 1.0 6.0 0.00 0.00 0.00 49 1011.4
20210618183022 96 109 1.0 5.0 0.00 0.00 0.00 52 1011.5
20210618181527 96 176 0.0 8.0 0.00 0.00 0.00 51 1011.8
20210618180019 95 138 1.0 7.0 0.00 0.00 0.00 52 1011.9
20210618174518 95 176 1.0 7.0 0.00 0.00 0.00 52 1012.1
20210618173011 95 138 2.0 10.0 0.00 0.00 0.00 52 1012.2
20210618171517 94 146 3.0 7.0 0.00 0.00 0.00 53 1012.3
20210618170019 93 216 0.0 7.0 0.00 0.00 0.00 55 1012.3
20210618164506 93 156 2.0 9.0 0.00 0.00 0.00 54 1012.4
20210618163009 92 126 2.0 8.0 0.00 0.00 0.00 55 1012.3
20210618161505 91 142 1.0 8.0 0.00 0.00 0.00 54 1012.4
20210618160133 90 159 3.0 8.0 0.00 0.00 0.00 55 1012.4
20210618154614 90 132 2.0 11.0 0.00 0.00 0.00 56 1012.5
20210618153206 91 117 1.0 9.0 0.00 0.00 0.00 56 1012.5
20210618151645 90 139 0.0 8.0 0.00 0.00 0.00 58 1012.6
20210618150142 89 147 1.0 6.0 0.00 0.00 0.00 58 1012.8
20210618144656 88 147 1.0 7.0 0.00 0.00 0.00 61 1012.9
20210618143129 87 183 2.0 8.0 0.00 0.00 0.00 62 1012.9
20210618141644 86 157 2.0 10.0 0.00 0.00 0.00 64 1012.9
20210618140124 86 150 3.0 9.0 0.00 0.00 0.00 64 1012.9
20210618134633 86 186 0.0 4.0 0.00 0.00 0.00 65 1012.9
20210618133142 85 170 3.0 11.0 0.00 0.00 0.00 66 1012.9
20210618131548 85 150 2.0 6.0 0.00 0.00 0.00 67 1012.8
20210618130122 84 142 0.0 3.0 0.00 0.00 0.00 69 1012.7
20210618124625 83 178 0.0 4.0 0.00 0.00 0.00 72 1012.6
20210618111537 77 172 0.0 0.0 0.00 0.00 0.00 80 1012.3
20210618104646 78 170 0.0 1.0 0.00 0.00 0.00 80 1012.3
20210618101634 78 169 0.0 2.0 0.00 0.00 0.00 80 1012.3
20210618093048 79 168 0.0 2.0 0.00 0.00 0.00 82 1012.2
20210618090026 80 165 0.0 4.0 0.00 0.00 0.00 80 1011.9
20210618080051 81 154 0.0 1.0 0.00 0.00 0.00 80 1012.0
20210618074519 81 143 0.0 4.0 0.00 0.00 0.00 79 1012.1
20210618071512 82 175 0.0 2.0 0.00 0.00 0.00 78 1012.2
20210618064501 82 180 0.0 4.0 0.00 0.00 0.00 77 1012.3
20210618061706 83 153 1.0 7.0 0.00 0.00 0.00 77 1012.4